Location: Maccacari
(45.1333°N, 11.1333°E)
Time: 02:47:52
(UTC+00:00)

Altair - Pass Details

Date: 27 January 2021
Orbit: 1501 x 1682 km, 47.2° (Epoch: 01 March)

Event Time Altitude Azimuth Distance (km) Brightness Sun altitude
Rises 12:05:23 0° 287° (WNW) 4,931 10.1 26.0°
Reaches altitude 10° 12:11:02 10° 262° (W) 3,918 10.0 25.8°
Maximum altitude 12:14:56 13° 239° (WSW) 3,660 10.3 25.7°
Drops below altitude 10° 12:18:47 10° 215° (SW) 3,867 11.0 25.5°
Sets 12:24:21 0° 190° (S) 4,807 11.5 25.3°
